TimeCST,TemperatureF,Dew PointF,Humidity,Sea Level PressureIn,VisibilityMPH,Wind Direction,Wind SpeedMPH,Gust SpeedMPH,PrecipitationIn,Events,Conditions,WindDirDegrees,DateUTC
12:15 AM,15.8,15.8,100,29.78,5.0,North,5.8,-,N/A,,Clear,350,2013-02-14 06:15:00
12:35 AM,14.0,14.0,100,29.78,5.0,North,5.8,-,N/A,,Clear,350,2013-02-14 06:35:00
12:55 AM,12.2,12.2,100,29.79,7.0,North,5.8,-,N/A,,Scattered Clouds,350,2013-02-14 06:55:00
1:14 AM,15.8,15.8,100,29.79,7.0,North,9.2,-,N/A,,Mostly Cloudy,350,2013-02-14 07:14:00
1:35 AM,17.6,17.6,100,29.80,7.0,NNW,10.4,-,N/A,,Overcast,340,2013-02-14 07:35:00
1:55 AM,17.6,17.6,100,29.80,10.0,North,9.2,-,N/A,,Mostly Cloudy,350,2013-02-14 07:55:00
2:14 AM,17.6,17.6,100,29.81,10.0,NNW,9.2,-,N/A,,Scattered Clouds,340,2013-02-14 08:14:00
2:35 AM,17.6,17.6,100,29.82,10.0,NNW,8.1,-,N/A,,Clear,340,2013-02-14 08:35:00
2:55 AM,17.6,17.6,100,29.82,10.0,NNW,9.2,-,N/A,,Scattered Clouds,340,2013-02-14 08:55:00
3:14 AM,15.8,15.8,100,29.83,10.0,NNW,10.4,-,N/A,,Scattered Clouds,340,2013-02-14 09:14:00
3:35 AM,15.8,15.8,100,29.84,7.0,North,10.4,-,N/A,,Overcast,350,2013-02-14 09:35:00
3:55 AM,17.6,17.6,100,29.84,10.0,North,10.4,-,N/A,,Overcast,10,2013-02-14 09:55:00
4:14 AM,17.6,17.6,100,29.84,10.0,North,13.8,-,N/A,,Overcast,10,2013-02-14 10:14:00
4:35 AM,17.6,17.6,100,29.84,10.0,North,15.0,-,N/A,,Overcast,10,2013-02-14 10:35:00
4:54 AM,17.6,17.6,100,29.85,10.0,NNE,16.1,-,N/A,,Scattered Clouds,20,2013-02-14 10:54:00
5:15 AM,17.6,15.8,93,29.86,10.0,North,12.7,-,N/A,,Clear,10,2013-02-14 11:15:00
5:35 AM,17.6,15.8,93,29.87,10.0,North,15.0,-,N/A,,Mostly Cloudy,10,2013-02-14 11:35:00
5:54 AM,17.6,15.8,93,29.88,10.0,NNE,15.0,-,N/A,,Overcast,20,2013-02-14 11:54:00
6:15 AM,17.6,15.8,93,29.89,10.0,NNE,17.3,-,N/A,,Scattered Clouds,20,2013-02-14 12:15:00
6:35 AM,17.6,15.8,93,29.90,10.0,NNE,16.1,-,N/A,,Scattered Clouds,20,2013-02-14 12:35:00
6:54 AM,15.8,14.0,93,29.91,10.0,North,16.1,-,N/A,,Clear,10,2013-02-14 12:54:00
7:15 AM,14.0,12.2,93,29.93,10.0,NNE,15.0,-,N/A,,Clear,20,2013-02-14 13:15:00
7:35 AM,14.0,12.2,93,29.94,10.0,North,16.1,-,N/A,,Clear,10,2013-02-14 13:35:00
7:54 AM,12.2,10.4,92,29.95,10.0,North,16.1,-,N/A,,Clear,10,2013-02-14 13:54:00
8:15 AM,10.4,8.6,92,29.97,10.0,North,15.0,-,N/A,,Clear,10,2013-02-14 14:15:00
8:35 AM,10.4,8.6,92,29.98,10.0,North,15.0,-,N/A,,Clear,10,2013-02-14 14:35:00
8:54 AM,10.4,8.6,92,30.00,10.0,North,15.0,-,N/A,,Clear,10,2013-02-14 14:54:00
9:14 AM,10.4,8.6,92,30.00,10.0,North,15.0,-,N/A,,Clear,10,2013-02-14 15:14:00
9:34 AM,10.4,8.6,92,30.02,10.0,North,18.4,-,N/A,,Clear,10,2013-02-14 15:34:00
9:55 AM,10.4,8.6,92,30.03,7.0,North,18.4,-,N/A,,Clear,10,2013-02-14 15:55:00
10:15 AM,8.6,6.8,92,30.05,10.0,North,18.4,-,N/A,,Scattered Clouds,360,2013-02-14 16:15:00
10:34 AM,8.6,6.8,92,30.06,7.0,North,18.4,-,N/A,,Overcast,360,2013-02-14 16:34:00
10:55 AM,8.6,6.8,92,30.07,5.0,North,18.4,-,N/A,,Overcast,360,2013-02-14 16:55:00
11:14 AM,8.6,6.8,92,30.08,7.0,North,17.3,-,N/A,,Overcast,360,2013-02-14 17:14:00
11:35 AM,10.4,6.8,85,30.10,7.0,North,19.6,-,N/A,,Overcast,360,2013-02-14 17:35:00
11:55 AM,32.0,-9999,N/A,30.10,10.0,North,18.4,-,N/A,,Mostly Cloudy,360,2013-02-14 17:55:00
12:14 PM,10.4,8.6,92,30.11,7.0,North,19.6,-,N/A,,Mostly Cloudy,360,2013-02-14 18:14:00
12:35 PM,10.4,8.6,92,30.12,7.0,North,20.7,24.2,N/A,,Mostly Cloudy,360,2013-02-14 18:35:00
12:55 PM,12.2,8.6,85,30.13,10.0,North,16.1,-,N/A,,Scattered Clouds,350,2013-02-14 18:55:00
1:14 PM,12.2,8.6,85,30.14,10.0,NNW,16.1,-,N/A,,Mostly Cloudy,340,2013-02-14 19:14:00
1:35 PM,10.4,8.6,92,30.14,10.0,NNW,16.1,-,N/A,,Mostly Cloudy,340,2013-02-14 19:35:00
1:54 PM,12.2,8.6,85,30.15,7.0,NNW,18.4,-,N/A,,Mostly Cloudy,340,2013-02-14 19:54:00
2:14 PM,12.2,8.6,85,30.16,7.0,North,18.4,-,N/A,,Scattered Clouds,350,2013-02-14 20:14:00
2:35 PM,12.2,8.6,85,30.17,10.0,North,17.3,-,N/A,,Clear,350,2013-02-14 20:35:00
2:54 PM,12.2,8.6,85,30.17,10.0,North,13.8,-,N/A,,Clear,350,2013-02-14 20:54:00
3:14 PM,12.2,8.6,85,30.18,10.0,North,15.0,-,N/A,,Clear,360,2013-02-14 21:14:00
3:35 PM,12.2,8.6,85,30.19,10.0,North,12.7,-,N/A,,Clear,350,2013-02-14 21:35:00
3:54 PM,12.2,8.6,85,30.20,10.0,North,11.5,-,N/A,,Clear,350,2013-02-14 21:54:00
4:15 PM,12.2,8.6,85,30.21,10.0,NNW,9.2,-,N/A,,Clear,340,2013-02-14 22:15:00
4:35 PM,10.4,8.6,92,30.22,10.0,NNW,11.5,-,N/A,,Clear,340,2013-02-14 22:35:00
4:54 PM,10.4,6.8,85,30.22,10.0,NW,6.9,-,N/A,,Clear,320,2013-02-14 22:54:00
5:15 PM,8.6,6.8,92,30.22,10.0,NNW,5.8,-,N/A,,Clear,340,2013-02-14 23:15:00
5:35 PM,8.6,5.0,85,30.23,10.0,NNW,8.1,-,N/A,,Clear,330,2013-02-14 23:35:00
5:54 PM,6.8,5.0,92,30.24,10.0,NNW,6.9,-,N/A,,Clear,330,2013-02-14 23:54:00
6:13 PM,6.8,6.8,100,30.24,10.0,NNW,3.5,-,N/A,,Clear,330,2013-02-15 00:13:00
6:34 PM,8.6,6.8,92,30.25,10.0,NW,4.6,-,N/A,,Clear,310,2013-02-15 00:34:00
6:54 PM,6.8,5.0,92,30.25,10.0,WNW,4.6,-,N/A,,Clear,300,2013-02-15 00:54:00
7:15 PM,6.8,6.8,100,30.25,10.0,West,4.6,-,N/A,,Clear,280,2013-02-15 01:15:00
7:35 PM,5.0,3.2,92,30.25,10.0,WNW,4.6,-,N/A,,Clear,290,2013-02-15 01:35:00
7:54 PM,3.2,3.2,100,30.25,10.0,WNW,3.5,-,N/A,,Scattered Clouds,300,2013-02-15 01:54:00
8:15 PM,5.0,3.2,92,30.25,10.0,WNW,3.5,-,N/A,,Scattered Clouds,300,2013-02-15 02:15:00
8:34 PM,5.0,3.2,92,30.24,10.0,WNW,4.6,-,N/A,,Scattered Clouds,300,2013-02-15 02:34:00
8:55 PM,1.4,-0.4,92,30.24,10.0,WNW,4.6,-,N/A,,Mostly Cloudy,300,2013-02-15 02:55:00
9:15 PM,3.2,1.4,92,30.24,10.0,Calm,Calm,-,N/A,,Scattered Clouds,0,2013-02-15 03:15:00
9:34 PM,6.8,3.2,85,30.24,10.0,WNW,3.5,-,N/A,,Mostly Cloudy,300,2013-02-15 03:34:00
9:55 PM,5.0,3.2,92,30.25,10.0,WNW,4.6,-,N/A,,Overcast,300,2013-02-15 03:55:00
10:15 PM,6.8,3.2,85,30.25,10.0,WNW,5.8,-,N/A,,Overcast,300,2013-02-15 04:15:00
10:34 PM,8.6,5.0,85,30.25,10.0,WNW,5.8,-,N/A,,Overcast,300,2013-02-15 04:34:00
10:55 PM,8.6,5.0,85,30.25,10.0,WNW,4.6,-,N/A,,Overcast,300,2013-02-15 04:55:00
11:14 PM,8.6,6.8,92,30.25,10.0,WNW,5.8,-,N/A,,Overcast,300,2013-02-15 05:14:00
11:35 PM,8.6,6.8,92,30.26,10.0,WNW,4.6,-,N/A,,Overcast,300,2013-02-15 05:35:00
11:55 PM,8.6,6.8,92,30.26,10.0,WNW,5.8,-,N/A,,Mostly Cloudy,300,2013-02-15 05:55:00